EW3649 Weather Reports


time (UTC)temp
F
wind
direction
speed
knots
gust
knots
rain 1hr
in
rain 24hr
in
rain mn
in
humidity
%
barometer
mb
20260505122006 54 0 0.0 0.0 0.00 0.00 0.00 86 1014.0
20260505121504 54 0 0.0 0.0 0.00 0.00 0.00 86 1014.0
20260505120504 54 0 0.0 0.0 0.00 0.00 0.00 86 1014.0
20260505120006 54 0 0.0 0.0 0.00 0.00 0.00 86 1014.0
20260505115504 54 0 0.0 0.0 0.00 0.00 0.00 86 1013.9
20260505115005 54 0 0.0 0.0 0.00 0.00 0.00 86 1013.9
20260505114504 54 0 0.0 0.0 0.00 0.00 0.00 86 1013.9
20260505114006 54 0 0.0 0.0 0.00 0.00 0.00 86 1014.0
20260505113504 54 0 0.0 0.0 0.00 0.00 0.00 86 1013.9
20260505113006 54 0 0.0 0.0 0.00 0.00 0.00 86 1013.9
20260505112504 54 0 0.0 0.0 0.00 0.00 0.00 86 1013.8
20260505112005 54 246 0.0 1.7 0.00 0.00 0.00 86 1013.9
20260505111503 54 246 0.0 4.3 0.00 0.00 0.00 86 1013.8
20260505111007 54 246 0.0 4.3 0.00 0.00 0.00 86 1013.8
20260505110504 54 246 0.0 3.5 0.00 0.00 0.00 86 1013.8
20260505102004 54 0 0.0 0.0 0.00 0.00 0.00 87 1013.5
20260505101504 54 0 0.0 0.0 0.00 0.00 0.00 87 1013.4
20260505101004 54 0 0.0 0.0 0.00 0.00 0.00 87 1013.4
20260505100503 54 0 0.0 0.0 0.00 0.00 0.00 87 1013.3
20260505100003 54 0 0.0 0.0 0.00 0.00 0.00 87 1013.4
20260505095504 54 0 0.0 0.0 0.00 0.00 0.00 87 1013.3
20260505095005 54 245 0.0 3.5 0.00 0.00 0.00 87 1013.3
20260505094503 54 245 0.0 3.5 0.00 0.00 0.00 87 1013.2
20260505094004 54 245 0.0 2.6 0.00 0.00 0.00 88 1013.2
20260505093005 54 245 0.0 0.9 0.00 0.00 0.00 88 1013.1
20260505092503 53 245 0.0 0.9 0.00 0.00 0.00 88 1013.1
20260505092005 53 245 0.0 0.9 0.00 0.00 0.00 88 1013.1
20260505091005 53 245 0.0 0.9 0.00 0.00 0.00 88 1013.0
20260505090503 53 0 0.0 0.0 0.00 0.00 0.00 88 1013.0
20260505085504 53 0 0.0 0.0 0.00 0.00 0.00 88 1012.9
20260505085004 53 0 0.0 0.0 0.00 0.00 0.00 87 1012.9
20260505084503 53 0 0.0 0.0 0.00 0.00 0.00 87 1013.0
20260505084005 53 0 0.0 0.0 0.00 0.00 0.00 87 1013.0
20260505083004 54 0 0.0 0.0 0.00 0.00 0.00 86 1012.9
20260505082504 54 0 0.0 0.0 0.00 0.00 0.00 86 1012.9
20260505082004 54 0 0.0 0.0 0.00 0.00 0.00 86 1012.9
20260505081504 54 0 0.0 0.0 0.00 0.00 0.00 86 1012.9
20260505081004 54 0 0.0 0.0 0.00 0.00 0.00 86 1012.8
20260505080504 54 0 0.0 0.0 0.00 0.00 0.00 86 1012.8
20260505080004 54 0 0.0 0.0 0.00 0.00 0.00 86 1012.7
20260505075504 54 0 0.0 0.0 0.00 0.00 0.00 85 1012.8
20260505075005 54 0 0.0 0.0 0.00 0.00 0.00 85 1012.8
20260505074505 55 0 0.0 0.0 0.00 0.00 0.00 85 1012.7
20260505074006 55 0 0.0 0.0 0.00 0.00 0.00 85 1012.6
20260505073505 55 0 0.0 0.0 0.00 0.00 0.00 84 1012.6
20260505073006 55 245 0.0 0.9 0.00 0.00 0.00 84 1012.6
20260505072505 55 245 0.0 1.7 0.00 0.00 0.00 85 1012.5
20260505071505 55 245 0.0 1.7 0.00 0.00 0.00 85 1012.4
20260505071006 55 0 0.0 0.0 0.00 0.00 0.00 85 1012.4
20260505070505 55 0 0.0 0.0 0.00 0.00 0.00 85 1012.3
20260505070011 55 0 0.0 0.0 0.00 0.00 0.00 85 1012.2
20260505065505 55 0 0.0 0.0 0.00 0.00 0.00 85 1012.2
20260505064505 56 0 0.0 0.0 0.00 0.00 0.00 84 1012.1
20260505064006 56 0 0.0 0.0 0.00 0.00 0.00 83 1011.9
20260505063505 56 0 0.0 0.0 0.00 0.00 0.00 83 1011.9
20260505062505 56 0 0.0 0.0 0.00 0.00 0.00 81 1011.9
20260505062007 56 0 0.0 0.0 0.00 0.00 0.00 81 1011.9
20260505061505 57 0 0.0 0.0 0.00 0.00 0.00 81 1011.8
20260505061005 57 0 0.0 0.0 0.00 0.00 0.00 80 1011.7
20260505060505 57 0 0.0 0.0 0.00 0.00 0.00 80 1011.6
20260505055505 58 0 0.0 0.0 0.00 0.00 0.00 79 1011.6
20260505055006 58 0 0.0 0.0 0.00 0.00 0.00 79 1011.6
20260505054505 58 0 0.0 0.0 0.00 0.00 0.00 78 1011.5
20260505053505 59 0 0.0 0.0 0.00 0.00 0.00 77 1011.4
20260505052505 59 0 0.0 0.0 0.00 0.00 0.00 76 1011.4
20260505052005 60 0 0.0 0.0 0.00 0.00 0.00 76 1011.3
20260505051504 60 245 0.0 0.9 0.00 0.00 0.00 75 1011.3
20260505051005 60 245 0.0 1.7 0.00 0.00 0.00 75 1011.2
20260505050505 60 245 0.0 2.6 0.00 0.00 0.00 74 1011.2
20260505041505 63 0 0.0 0.0 0.00 0.00 0.00 70 1010.6
20260505040505 64 0 0.0 0.0 0.00 0.00 0.00 69 1010.4
20260505035505 64 257 0.0 0.9 0.00 0.00 0.00 68 1010.2
20260505035005 65 257 0.0 0.9 0.00 0.00 0.00 67 1010.1
20260505034505 65 258 0.0 2.6 0.00 0.00 0.00 67 1010.1
20260505034006 65 258 0.0 4.3 0.00 0.00 0.00 66 1010.0
20260505033505 66 258 0.0 4.3 0.00 0.00 0.00 66 1009.9
20260505033006 66 258 0.0 1.7 0.00 0.00 0.00 65 1009.9
20260505032005 67 258 0.0 3.5 0.00 0.00 0.00 63 1009.7
20260505031505 68 251 0.0 2.6 0.00 0.00 0.00 63 1009.7
20260505031006 68 250 0.0 2.6 0.00 0.00 0.00 62 1009.6
20260505025505 70 0 0.0 0.0 0.00 0.00 0.00 59 1009.4
20260505024505 70 0 0.0 0.0 0.00 0.00 0.00 57 1009.3
20260505024005 71 0 0.0 0.0 0.00 0.00 0.00 57 1009.3
20260505023504 71 0 0.0 0.0 0.00 0.00 0.00 56 1009.3
20260505023006 72 0 0.0 0.0 0.00 0.00 0.00 55 1009.3
20260505022504 72 0 0.0 0.0 0.00 0.00 0.00 55 1009.3
20260505022005 73 242 0.0 0.9 0.00 0.00 0.00 55 1009.2
20260505021505 73 242 0.0 0.9 0.00 0.00 0.00 55 1009.2
20260505021006 74 0 0.0 0.0 0.00 0.00 0.00 55 1009.2
20260505020005 74 242 0.0 0.9 0.00 0.00 0.00 54 1009.1
20260505015505 74 242 0.0 0.9 0.00 0.00 0.00 53 1009.1
20260505015005 74 242 0.0 0.9 0.00 0.00 0.00 53 1009.1
20260505014505 75 242 0.0 2.6 0.00 0.00 0.00 53 1009.1
20260505014006 75 242 0.0 2.6 0.00 0.00 0.00 52 1009.1
20260505013505 75 242 0.0 0.9 0.00 0.00 0.00 50 1009.2
20260505012505 75 242 0.0 1.7 0.00 0.00 0.00 50 1009.1
20260505012006 76 242 0.0 2.6 0.00 0.00 0.00 49 1009.2
20260505011505 76 240 0.0 2.6 0.00 0.00 0.00 48 1009.3
20260505011005 76 234 0.0 1.7 0.00 0.00 0.00 47 1009.2
20260505010505 76 237 0.0 4.3 0.00 0.00 0.00 46 1009.3
20260505010005 76 240 0.0 4.3 0.00 0.00 0.00 47 1009.3
20260505005005 76 239 0.0 2.6 0.00 0.00 0.00 48 1009.3
20260505004505 76 0 0.0 0.0 0.00 0.00 0.00 46 1009.3
20260505004005 77 0 0.0 0.0 0.00 0.00 0.00 45 1009.3
20260505002505 78 238 0.0 1.7 0.00 0.00 0.00 41 1009.2
20260505002005 78 238 0.0 1.7 0.00 0.00 0.00 38 1009.2
20260505001505 78 238 0.0 1.7 0.00 0.00 0.00 39 1009.3
20260505001005 79 238 0.0 0.9 0.00 0.00 0.00 37 1009.3
20260505000505 79 0 0.0 0.0 0.00 0.00 0.00 36 1009.3
20260504235505 80 238 0.0 2.6 0.00 0.00 0.00 36 1009.3
20260504235005 81 239 0.0 3.5 0.00 0.00 0.00 35 1009.3
20260504234505 81 240 0.0 3.5 0.00 0.00 0.00 35 1009.3
20260504233504 82 240 0.0 1.7 0.00 0.00 0.00 36 1009.4
20260504233005 82 240 0.0 1.7 0.00 0.00 0.00 37 1009.4
20260504232504 82 0 0.0 0.0 0.00 0.00 0.00 35 1009.3
20260504232005 82 0 0.0 0.0 0.00 0.00 0.00 34 1009.3
20260504231504 82 0 0.0 0.0 0.00 0.00 0.00 32 1009.4
20260504231006 82 237 0.0 0.9 0.00 0.00 0.00 34 1009.4
20260504230504 82 237 0.0 0.9 0.00 0.00 0.00 31 1009.5
20260504230005 82 237 0.0 0.9 0.00 0.00 0.00 33 1009.6
20260504225504 81 237 0.0 0.9 0.00 0.00 0.00 36 1009.7
20260504225005 81 237 0.0 3.5 0.00 0.00 0.00 34 1009.7
20260504224505 81 237 0.0 3.5 0.00 0.00 0.00 36 1009.8
20260504224006 81 238 0.0 3.5 0.00 0.00 0.00 36 1009.9
20260504223504 81 238 0.0 3.5 0.00 0.00 0.00 35 1009.9
20260504222504 81 241 0.0 1.7 0.00 0.00 0.00 36 1009.9
20260504221005 80 248 0.0 3.5 0.00 0.00 0.00 36 1010.1
20260504220005 80 240 0.0 4.3 0.00 0.00 0.00 40 1010.1
20260504215504 80 237 0.0 4.3 0.00 0.00 0.00 39 1010.1
20260504215005 79 221 0.0 2.6 0.00 0.00 0.00 40 1010.2
20260504214504 79 242 0.0 2.6 0.00 0.00 0.00 41 1010.2
20260504213504 79 245 0.0 3.5 0.00 0.00 0.00 40 1010.2
20260504213006 80 240 0.0 3.5 0.00 0.00 0.00 40 1010.2
20260504212505 80 234 0.0 3.5 0.00 0.00 0.00 41 1010.2
20260504212007 80 231 0.0 0.9 0.00 0.00 0.00 44 1010.3
20260504211504 79 231 0.0 0.9 0.00 0.00 0.00 42 1010.3
20260504211006 79 0 0.0 0.0 0.00 0.00 0.00 41 1010.3
20260504210504 79 222 0.0 1.7 0.00 0.00 0.00 43 1010.3
20260504210006 79 221 0.0 1.7 0.00 0.00 0.00 45 1010.4
20260504205504 79 220 0.0 1.7 0.00 0.00 0.00 43 1010.5
20260504205006 79 227 0.0 1.7 0.00 0.00 0.00 44 1010.5
20260504204504 78 237 0.0 1.7 0.00 0.00 0.00 45 1010.5
20260504204005 78 240 0.0 0.9 0.00 0.00 0.00 43 1010.4
20260504203505 78 240 0.0 0.9 0.00 0.00 0.00 42 1010.4
20260504203005 78 231 0.0 2.6 0.00 0.00 0.00 44 1010.4
20260504202504 78 231 0.0 2.6 0.00 0.00 0.00 43 1010.4
20260504202004 78 231 0.0 0.9 0.00 0.00 0.00 44 1010.4
20260504201504 77 231 0.0 1.7 0.00 0.00 0.00 45 1010.4
20260504201005 77 229 0.0 3.5 0.00 0.00 0.00 43 1010.5
20260504200005 77 226 0.0 4.3 0.00 0.00 0.00 44 1010.5
20260504195504 77 219 0.0 1.7 0.00 0.00 0.00 44 1010.6
20260504195006 77 220 0.0 0.9 0.00 0.00 0.00 44 1010.7
20260504194504 76 228 0.0 0.9 0.00 0.00 0.00 44 1010.6
20260504193505 77 227 0.0 2.6 0.00 0.00 0.00 46 1010.6
20260504193006 77 227 0.0 0.9 0.00 0.00 0.00 46 1010.7
20260504192504 77 227 0.0 0.9 0.00 0.00 0.00 48 1010.7
20260504192006 77 223 0.0 3.5 0.00 0.00 0.00 49 1010.8
20260504191504 76 223 0.0 3.5 0.00 0.00 0.00 48 1010.7
20260504191006 76 235 0.0 1.7 0.00 0.00 0.00 52 1010.8
20260504190504 76 234 0.0 1.7 0.00 0.00 0.00 52 1010.7
20260504190005 76 233 0.0 2.6 0.00 0.00 0.00 51 1010.8
20260504185504 75 232 0.0 2.6 0.00 0.00 0.00 52 1010.8
20260504185005 75 234 0.0 2.6 0.00 0.00 0.00 51 1010.9
20260504184504 74 241 0.0 0.9 0.00 0.00 0.00 51 1010.8
20260504184006 74 241 0.0 0.9 0.00 0.00 0.00 53 1010.9
20260504183504 74 0 0.0 0.0 0.00 0.00 0.00 51 1010.9
20260504183006 74 238 0.0 2.6 0.00 0.00 0.00 51 1011.0
20260504181505 74 238 0.0 1.7 0.00 0.00 0.00 54 1011.1
20260504181006 74 0 0.0 0.0 0.00 0.00 0.00 52 1011.1
20260504180504 74 203 0.0 0.9 0.00 0.00 0.00 53 1011.1
20260504180006 73 203 0.0 0.9 0.00 0.00 0.00 54 1011.1
20260504175504 73 203 0.0 1.7 0.00 0.00 0.00 55 1011.0
20260504175006 73 203 0.0 1.7 0.00 0.00 0.00 54 1011.0
20260504174504 72 201 0.0 0.9 0.00 0.00 0.00 54 1011.0
20260504174004 72 201 0.0 0.9 0.00 0.00 0.00 55 1011.0
20260504173504 72 0 0.0 0.0 0.00 0.00 0.00 56 1011.0
20260504173005 72 0 0.0 0.0 0.00 0.00 0.00 55 1010.9
20260504172505 71 0 0.0 0.0 0.00 0.00 0.00 58 1011.0
20260504172005 71 0 0.0 0.0 0.00 0.00 0.00 57 1011.0
20260504171504 71 0 0.0 0.0 0.00 0.00 0.00 57 1010.9
20260504171006 70 0 0.0 0.0 0.00 0.00 0.00 61 1010.9
20260504170505 70 0 0.0 0.0 0.00 0.00 0.00 60 1010.9
20260504151005 63 0 0.0 0.0 0.00 0.00 0.00 61 1010.3
20260504150505 63 0 0.0 0.0 0.00 0.00 0.00 64 1010.3
20260504141004 51 0 0.0 0.0 0.00 0.00 0.00 91 1010.1
20260504140504 51 0 0.0 0.0 0.00 0.00 0.00 90 1010.0